User: anonymous   Login
Location: Unspecified
(0.0000°N, 0.0000°E)
Time: 07:42:11
(UTC+00:00)
Language:

UGATUSAT - Orbit

View from above orbital plane
View from above orbital plane
View from above satellite
View from above satellite

Ground track
Ground track

The orbit data is extracted from the following two-line orbital elements,

1 35869U 09049E   19082.92016068 -.00000032 +00000-0 +42891-5 0  9990
2 35869 098.4068 084.1159 0005670 068.6252 291.5531 14.22409462493739
Epoch (UTC): 23 March 2019 22:05:01
Eccentricity: 0.0005670
inclination: 98.4068°
perigee height: 813 km
apogee height: 821 km
right ascension of ascending node: 84.1159°
argument of perigee: 68.6252°
revolutions per day: 14.22409462
mean anomaly at epoch: 291.5531°
orbit number at epoch: 49373

The dashed part of the orbit path shows where the satellite is in the earth's shadow,  

DLR